カタログに戻る

SL-16 DEB

運用中LEO
NORAD 39717·DEBRIS·🇷🇺 Russia

打ち上げ Dec 25, 1992 から Baikonur Cosmodrome

Loading…

次のパス (今後24時間)

TLE

古いSource: Space-Track

元期: Sep 7, 2026, 10:41 UTC

1 39717U 92093KH  26250.44515241  .00000495  00000-0  33299-3 0  9998
2 39717  70.6896 320.2440 0098010 188.5274 171.4181 14.03413240634001

AllMySatでSL-16 DEBをリアルタイム追跡

Download on the App Store